Preview of NWS' New Version of Forecast
This preview is not operational and should not be used for support decisions.

Regional Weather Roundup (RWR)

Issued by National Weather Service (NWS)

                            
000
ASUS45 KREV 220410
RWRNV 
NEVADA REGIONAL WEATHER ROUNDUP
NATIONAL WEATHER SERVICE RENO NV
800 PM PST MON JAN 21 2019

NOTE: "FAIR" INDICATES FEW OR NO CLOUDS BELOW 12,000 FEET WITH NO
SIGNIFICANT WEATHER AND/OR OBSTRUCTIONS TO VISIBILITY.

NVZ001-003-004-220500-
WESTERN NEVADA
  
CITY           SKY/WX    TMP DP  RH WIND       PRES   REMARKS
RENO           PTCLDY    33  20  58 N7        30.29R                  
CARSON CITY    FAIR      32  19  59 N17G25    30.25S                  
MINDEN         FAIR      28  21  74 NE3       30.27R                  
SLIDE MTN        N/A     10  10 100 MISG        N/A                   
PYRAMID LAKE     N/A     36 N/A N/A NW5         N/A                   
FALLON         CLEAR     32  21  64 N6        30.28R                  
LOVELOCK       CLEAR     32  20  61 N13       30.28R                  
HAWTHORNE      CLOUDY    34  28  80 NW6       30.27R                  
$$

NVZ002-CAZ072-073-220500-
NORTHERN AND CENTRAL SIERRA
  
CITY           SKY/WX    TMP DP  RH WIND       PRES   REMARKS
S. LAKE TAHOE  PTCLDY    22  20  92 CALM      30.22R                  
TRUCKEE        PTCLDY    18  14  86 CALM      30.27R FOG              
SQUAW VLY 8000   N/A     18  16  93 NW13        N/A                   
BLUE CANYON    CLEAR     28  20  71 NE8G23    30.21S                  
MAMMOTH LAKES  CLOUDY    24  19  80 N6        30.20R                  
BRIDGEPORT     MOCLDY    36  16  44 NE8       30.17R                  
$$

NVZ030-031-036-220500-
NORTHERN NEVADA
  
CITY           SKY/WX    TMP DP  RH WIND       PRES   REMARKS
ELKO           PTCLDY    22  13  68 W3        30.19R                  
WINNEMUCCA     CLEAR     28  21  75 NW12      30.26R                  
WENDOVER       CLEAR     30  17  58 NW22      30.09R                  
$$

NVZ035-037-220500-
CENTRAL NEVADA
  
CITY           SKY/WX    TMP DP  RH WIND       PRES   REMARKS
ELY            PTCLDY    18  11  74 NW14      30.06R                  
EUREKA           N/A     14  12  92 CALM      30.17R                  
$$

NVZ013-014-220500-
SOUTH CENTRAL NEVADA
  
CITY           SKY/WX    TMP DP  RH WIND       PRES   REMARKS
TONOPAH        CLEAR     30  16  56 N20       30.14R                  
$$

NVZ017-020-022-220500-
SOUTHERN NEVADA
  
CITY           SKY/WX    TMP DP  RH WIND       PRES   REMARKS
LAS VEGAS      MOCLDY    51  25  36 NW20G33   29.97R                  
N. LAS VEGAS   MOCLDY    50  26  39 N22G31    29.96R                  
NELLIS AFB     MOCLDY    49  28  44 NW5       29.99R                  
HENDERSON      CLOUDY    49  26  41 N22       29.99R                  
MERCURY        CLOUDY    42  25  50 NE8       30.06R                  
$$